Terug naar catalogus

ONEWEB-0236

ActiefCommunicatiePO
NORAD 48797·PAYLOAD·🇬🇧 United Kingdom

Gelanceerd May 28, 2021 vanaf Vostochny Cosmodrome

Loading…

Volgende Passages (komende 24 uur)

TLE

VersSource: CelesTrak SupGP

Epoch: Sep 14, 2026, 15:23 UTC

1 48797C 21045AG  26257.64113843 -.00002174  00000+0 -57807-2 0  2570
2 48797  87.8992 241.3667 0001937  87.3156  16.4268 13.15552328    12

Volg ONEWEB-0236 in realtime met AllMySat

Download on the App Store